Tracking 27111 objects as of 29-Mar-2023
HD Live streaming from Space Station
objects crossing your sky now

STARLINK-3987

Track STARLINK-3987 now!
10-day predictions
STARLINK-3987 is classified as:


NORAD ID: 52699
Int'l Code: 2022-053AV
Perigee: 545.5 km
Apogee: 548.2 km
Inclination: 53.2 °
Period: 95.4 minutes
Semi major axis: 6917 km
RCS: Unknown
Launch date: May 18, 2022
Source: United States (US)
Launch site: AIR FORCE EASTERN TEST RANGE (AFETR)
Your satellite tracking list
Your tracking list is empty




NASA's NSSDC Master Catalog

Two Line Element Set (TLE):
1 52699U 22053AV  23087.57569185  .00017470  00000-0  11123-2 0  9998
2 52699  53.2162 294.5021 0001939  52.2848 307.8319 15.08863930 48204
Source of the keplerian elements: AFSPC